Regional Weather Roundup
Issued by NWS

Home | Current Version | Previous Version | Graphics & Text | Print | Product List | Glossary On
Versions: 1 2 3 4 5 6 7 8 9 10 11 12 13 14 15 16 17 18 19 20 21 22 23 24 25 26 27 28 29 30 31 32 33 34 35 36 37 38 39 40 41 42 43 44 45 46 47 48 49 50
000
ASUS43 KOAX 301702
RWRNE
OMARWRNE ALL

WEATHER ROUNDUP FOR NEBRASKA
NATIONAL WEATHER SERVICE OMAHA NE
1200 PM CDT SAT MAY 30 2015

NOTES: SATELLITE DATA IS BEING USED TO AUGMENT CLOUD COVER ABOVE
       12000 FEET.
       "FAIR" INDICATES FEW OR NO CLOUDS BELOW 12,000 FEET WITH NO
       SIGNIFICANT WEATHER AND/OR OBSTRUCTIONS TO VISIBILITY.

  * THESE STATIONS DO NOT REPORT WEATHER SUCH AS RAIN...SNOW OR FOG.

NEZ001>004-019>022-054>056-301800-
NEBRASKA PANHANDLE

CITY           SKY/WX    TMP DP  RH WIND       PRES   REMARKS
SCOTTSBLUFF    PTSUNNY   58  49  72 SE12      30.27S
ALLIANCE       PTSUNNY   54  44  69 S8        30.28F
CHADRON        MOSUNNY   57  45  64 S8        30.27F
KIMBALL          N/A    N/A N/A N/A MISG        N/A
SIDNEY         CLOUDY    54  45  71 CALM      30.30S
$$

NEZ057>060-069>072-079>082-301800-
SOUTHWEST NEBRASKA

CITY           SKY/WX    TMP DP  RH WIND       PRES   REMARKS
NORTH PLATTE   SUNNY     54  37  52 N9        30.31S
IMPERIAL       SUNNY     55  40  56 N6        30.31S
LEXINGTON      SUNNY     56  37  48 N14G20    30.29S
MCCOOK         SUNNY     58  38  47 N14G20    30.30S
$$

NEZ005>010-023>029-035>040-094-301800-
NORTH CENTRAL NEBRASKA

CITY           SKY/WX    TMP DP  RH WIND       PRES   REMARKS
VALENTINE      SUNNY     53  32  44 VRB7      30.32F
AINSWORTH      SUNNY     52  36  54 N8        30.31F
BROKEN BOW     SUNNY     57  34  41 NE13G21   30.28F
ORD            SUNNY     56  42  59 N16G22    30.27F
$$

NEZ041-046>049-061>064-073>077-083>087-301800-
SOUTH CENTRAL NEBRASKA

CITY           SKY/WX    TMP DP  RH WIND       PRES   REMARKS
GRAND ISLAND   SUNNY     60  42  51 N21G33    30.26S
HASTINGS       SUNNY     59  45  59 N14       30.25S
KEARNEY *      MOSUNNY   55  41  58 N16       30.27S
$$

NEZ011>018-030>034-042>045-301800-
NORTHEAST NEBRASKA

CITY           SKY/WX    TMP DP  RH WIND       PRES   REMARKS
NORFOLK        SUNNY     58  41  53 N15G28    30.25F
BLAIR          CLOUDY    56  45  66 N16G24    30.20S
COLUMBUS *     MOSUNNY   59  43  55 N18       30.25S
FREMONT        CLOUDY    58  44  60 N14G20    30.22S
TEKAMAH        PTSUNNY   61  46  57 N22       30.21S
$$

NEZ050>053-065>068-078-088>093-301800-
SOUTHEAST NEBRASKA

CITY           SKY/WX    TMP DP  RH WIND       PRES   REMARKS
LINCOLN        CLOUDY    58  45  62 N20       30.21S
OMAHA EPPLEY   PTSUNNY   58  47  66 N18G25    30.19R
FALLS CITY     CLOUDY    57  51  80 N13G22    30.15R
PLATTSMOUTH    CLOUDY    55  47  74 N10G17    30.19R
$$

NEZ044-045-051>053-067-301800-
OMAHA AREA

CITY           SKY/WX    TMP DP  RH WIND       PRES   REMARKS
OMAHA EPPLEY   PTSUNNY   58  47  66 N18G25    30.19R
BLAIR          CLOUDY    56  45  66 N16G24    30.20S
FREMONT        CLOUDY    58  44  60 N14G20    30.22S
OFFUTT AFB     CLOUDY    57  48  71 N8G18     30.18S
PLATTSMOUTH    CLOUDY    55  47  74 N10G17    30.19R
$$



USA.gov is the U.S. government's official web portal to all federal, state and local government web resources and services.